Location: Rancho Del Sol Observatory
(38.7214°N, 120.6350°W)
Time: 09:41:46
(UTC-08:00)

A-11 Canister half - Pass Details

Date: 05 February 2020
Orbit: 1517 x 1683 km, 47.2° (Epoch: 26 February)

Event Time Altitude Azimuth Distance (km) Brightness Sun altitude
Rises 19:59:21 0° 230° (SW) 4,844 12.2 -29.7°
Reaches altitude 10° 20:02:30 10° 229° (SW) 3,838 11.6 -30.3°
Maximum altitude 20:12:14 78° 145° (SE) 1,610 8.8 -32.2°
Enters shadow 20:13:24 70° 91° (E) 1,659 8.8 -32.5°
Drops below altitude 10° 20:21:39 10° 61° (ENE) 3,722 - -34.1°
Sets 20:24:40 0° 60° (ENE) 4,691 - -34.6°
